Marysville, OH

8:18 PM EDT on May 26, 2017 (GMT -0400)
Marysville

Weather History for KMRT - May, 2013

Change the Weather History Date:

Friday, May 17, 2013

  Actual Average (KDLZ) Record (KDLZ)
Temperature  
Mean Temperature 66 °F -  
Max Temperature 81 °F 71 °F 95 °F (1962)
Min Temperature 52 °F 46 °F 34 °F (1984)
Cooling Degree Days 2    
Growing Degree Days 16 (Base 50)    
Moisture  
Dew Point 56 °F    
Average Humidity 74    
Maximum Humidity 96    
Minimum Humidity 31    
Precipitation  
Precipitation 0.00 in - - ()
Sea Level Pressure  
Sea Level Pressure 30.06 in    
Wind  
Wind Speed 4 mph (South)    
Max Wind Speed 12 mph    
Max Gust Speed -    
Visibility 5 miles    
Events      
Averages and records for this station are not official NWS values.
T = Trace of Precipitation, MM = Missing Value Source: NWS Daily Summary

Daily Weather History Graph

Daily Weather History Graph

Search for Another Location

Airport or City:

Trip Planner

Search our weather history database for the weather conditions in past years. The results will help you decide how hot, cold, wet, or windy it might be!

Date:

Astronomy

May. 17, 2013 Rise Set
Actual Time 6:15 AM EDT 8:44 PM EDT
Civil Twilight 5:44 AM EDT 9:15 PM EDT
Nautical Twilight 5:06 AM EDT 9:54 PM EDT
Astronomical Twilight 4:23 AM EDT 10:37 PM EDT
Moon 12:47 PM EDT (5/17) 1:36 AM EDT (5/17)
Length of Visible Light 15h 31m
Length of Day
14h 28m
Waxing Crescent, 45% of the Moon is Illuminated
May 17
Waxing Crescent
May 18
First Quarter
May 25
Full
May 31
Last Quarter
Jun 8
New

Hourly Weather History & Observations

Time (EDT) Temp. Dew Point Humidity Pressure Visibility Wind Dir Wind Speed Gust Speed Precip Events Conditions
12:14 AM 59.9 °F 56.7 °F 89% 30.00 in 5.0 mi WSW 4.6 mph - N/A   Clear
12:33 AM 59.5 °F 57.0 °F 91% 30.00 in 5.0 mi SW 6.9 mph - N/A   Clear
12:54 AM 60.1 °F 57.2 °F 90% 30.00 in 5.0 mi SW 5.8 mph - N/A   Clear
1:14 AM 59.2 °F 56.8 °F 92% 30.01 in 4.0 mi WSW 4.6 mph - N/A   Clear
1:33 AM 59.5 °F 57.4 °F 93% 30.01 in 4.0 mi Calm Calm - N/A   Clear
1:54 AM 59.0 °F 56.7 °F 92% 30.01 in 3.0 mi SW 3.5 mph - N/A   Clear
2:14 AM 58.5 °F 56.5 °F 93% 30.00 in 2.0 mi Calm Calm - N/A   Clear
2:33 AM 57.4 °F 55.6 °F 94% 30.00 in 1.0 mi West 3.5 mph - N/A   Unknown
2:54 AM 56.7 °F 54.9 °F 94% 30.00 in 1.0 mi Calm Calm - N/A   Unknown
3:14 AM 55.8 °F 54.1 °F 94% 30.01 in 0.2 mi SW 3.5 mph - N/A   Overcast
3:33 AM 56.5 °F 54.9 °F 94% 30.01 in 0.2 mi Calm Calm - N/A   Overcast
3:54 AM 55.2 °F 53.4 °F 94% 30.01 in 0.2 mi Calm Calm - N/A   Overcast
4:13 AM 56.7 °F 55.2 °F 95% 30.01 in 0.2 mi Calm Calm - N/A   Overcast
4:34 AM 55.9 °F 54.5 °F 95% 30.01 in 0.2 mi Calm Calm - N/A   Overcast
4:54 AM 55.9 °F 54.5 °F 95% 30.02 in 0.8 mi Calm Calm - N/A   Overcast
5:14 AM 54.0 °F 52.7 °F 95% 30.03 in 1.5 mi Calm Calm - N/A   Scattered Clouds
5:34 AM 52.5 °F 51.3 °F 95% 30.03 in 0.2 mi ENE 3.5 mph - N/A   Overcast
5:54 AM 52.7 °F 51.3 °F 95% 30.03 in 0.2 mi Calm Calm - N/A   Overcast
6:13 AM 53.2 °F 51.8 °F 95% 30.04 in 0.2 mi Calm Calm - N/A   Overcast
6:34 AM 54.9 °F 53.4 °F 95% 30.05 in 0.2 mi Calm Calm - N/A   Overcast
6:54 AM 55.4 °F 54.0 °F 95% 30.06 in 0.2 mi South 3.5 mph - N/A   Overcast
7:13 AM 55.8 °F 54.5 °F 96% 30.06 in 0.2 mi Calm Calm - N/A   Overcast
7:34 AM 55.9 °F 54.5 °F 95% 30.07 in 0.2 mi SSW 4.6 mph - N/A   Overcast
8:13 AM 57.2 °F 55.9 °F 96% 30.08 in 0.2 mi South 3.5 mph - N/A   Overcast
8:34 AM 58.1 °F 56.7 °F 95% 30.08 in 0.2 mi South 3.5 mph - N/A   Overcast
8:54 AM 59.2 °F 58.1 °F 96% 30.09 in 0.2 mi SSW 4.6 mph - N/A   Overcast
9:13 AM 59.7 °F 58.5 °F 96% 30.10 in 0.2 mi Calm Calm - N/A   Overcast
9:34 AM 60.3 °F 59.0 °F 96% 30.09 in 0.2 mi ESE 4.6 mph - N/A   Overcast
9:54 AM 60.6 °F 59.0 °F 94% 30.10 in 0.2 mi Calm Calm - N/A   Overcast
10:13 AM 61.2 °F 59.9 °F 96% 30.10 in 0.8 mi SSE 4.6 mph - N/A   Overcast
10:34 AM 62.1 °F 60.8 °F 96% 30.10 in 1.8 mi ESE 3.5 mph - N/A   Overcast
10:54 AM 62.8 °F 61.5 °F 96% 30.10 in 2.0 mi SE 4.6 mph - N/A   Overcast
11:13 AM 63.3 °F 61.9 °F 95% 30.11 in 2.5 mi SE 3.5 mph - N/A   Overcast
11:34 AM 64.4 °F 63.0 °F 95% 30.11 in 3.0 mi SE 5.8 mph - N/A   Overcast
11:54 AM 65.8 °F 63.1 °F 91% 30.11 in 4.0 mi South 9.2 mph - N/A   Overcast
12:13 PM 65.8 °F 61.0 °F 84% 30.11 in 4.0 mi South 6.9 mph - N/A   Overcast
12:34 PM 68.4 °F 61.2 °F 78% 30.12 in 4.0 mi SSW 8.1 mph - N/A   Overcast
12:54 PM 68.5 °F 60.3 °F 75% 30.11 in 4.0 mi SSW 6.9 mph - N/A   Overcast
1:13 PM 69.3 °F 59.9 °F 72% 30.11 in 4.0 mi SSW 5.8 mph - N/A   Mostly Cloudy
1:34 PM 71.2 °F 60.4 °F 69% 30.10 in 5.0 mi SW 6.9 mph - N/A   Scattered Clouds
1:54 PM 72.0 °F 60.3 °F 67% 30.10 in 5.0 mi SSW 6.9 mph - N/A   Scattered Clouds
2:13 PM 73.2 °F 60.4 °F 64% 30.09 in 5.0 mi SSW 5.8 mph - N/A   Scattered Clouds
2:34 PM 74.1 °F 59.2 °F 59% 30.09 in 7.0 mi Calm Calm - N/A   Scattered Clouds
3:13 PM 76.8 °F 58.1 °F 52% 30.08 in 10.0 mi SSE 5.8 mph - N/A   Clear
3:34 PM 77.2 °F 57.0 °F 50% 30.07 in 7.0 mi ESE 3.5 mph - N/A   Clear
3:54 PM 77.4 °F 56.8 °F 49% 30.06 in 10.0 mi East 6.9 mph - N/A   Clear
4:13 PM 78.6 °F 54.9 °F 44% 30.05 in 10.0 mi SSE 3.5 mph - N/A   Clear
4:34 PM 78.6 °F 52.9 °F 41% 30.05 in 10.0 mi SE 4.6 mph - N/A   Clear
4:54 PM 79.9 °F 51.6 °F 37% 30.04 in 10.0 mi ESE 6.9 mph - N/A   Clear
5:13 PM 80.4 °F 49.5 °F 34% 30.04 in 10.0 mi SE 5.8 mph - N/A   Clear
5:34 PM 81.0 °F 49.5 °F 33% 30.04 in 10.0 mi South 5.8 mph - N/A   Clear
5:53 PM 80.4 °F 47.5 °F 31% 30.05 in 10.0 mi SSE 4.6 mph - N/A   Clear
6:14 PM 80.4 °F 47.1 °F 31% 30.04 in 10.0 mi South 8.1 mph - N/A   Clear
6:34 PM 79.9 °F 47.5 °F 32% 30.04 in 10.0 mi SSE 4.6 mph - N/A   Clear
6:53 PM 79.2 °F 49.1 °F 35% 30.04 in 10.0 mi SSE 6.9 mph - N/A   Clear
7:13 PM 78.3 °F 46.0 °F 32% 30.04 in 10.0 mi SE 4.6 mph - N/A   Clear
7:34 PM 77.9 °F 46.6 °F 33% 30.05 in 10.0 mi SSE 3.5 mph - N/A   Clear
7:53 PM 76.5 °F 48.0 °F 37% 30.06 in 10.0 mi SSE 3.5 mph - N/A   Mostly Cloudy
8:13 PM 75.2 °F 48.0 °F 38% 30.07 in 10.0 mi Calm Calm - N/A   Overcast
8:34 PM 74.3 °F 48.7 °F 40% 30.07 in 10.0 mi Calm Calm - N/A   Overcast
8:53 PM 72.5 °F 52.2 °F 49% 30.08 in 10.0 mi SSW 4.6 mph - N/A   Overcast
9:13 PM 69.8 °F 56.7 °F 63% 30.09 in 10.0 mi WSW 11.5 mph - N/A   Overcast
9:34 PM 68.5 °F 57.0 °F 67% 30.10 in 10.0 mi WSW 8.1 mph - N/A   Scattered Clouds
9:53 PM 67.5 °F 57.2 °F 70% 30.10 in 10.0 mi West 5.8 mph - N/A   Mostly Cloudy
10:13 PM 65.7 °F 57.4 °F 75% 30.10 in 10.0 mi West 4.6 mph - N/A   Scattered Clouds
10:34 PM 66.4 °F 57.6 °F 73% 30.11 in 10.0 mi North 5.8 mph - N/A   Clear
10:54 PM 66.0 °F 57.7 °F 75% 30.11 in 10.0 mi North 4.6 mph - N/A   Scattered Clouds
11:13 PM 66.0 °F 57.4 °F 74% 30.10 in 10.0 mi Calm Calm - N/A   Scattered Clouds
11:34 PM 65.7 °F 57.4 °F 75% 30.09 in 10.0 mi Calm Calm - N/A   Clear
11:54 PM 65.3 °F 57.6 °F 76% 30.09 in 10.0 mi Calm Calm - N/A   Clear